New Castle, PA

1:55 AM EDT on August 26, 2016 (GMT -0400)
New Castle Municipal

Weather History for KUCP - April, 2013

Change the Weather History Date:

Thursday, April 18, 2013

  Actual Average Record
Temperature  
Mean Temperature 70 °F -  
Max Temperature 84 °F 63 °F 89 °F (1976)
Min Temperature 57 °F 36 °F 19 °F (1926)
Cooling Degree Days 6    
Growing Degree Days 20 (Base 50)    
Moisture  
Dew Point 56 °F    
Average Humidity 58    
Maximum Humidity 90    
Minimum Humidity 36    
Precipitation  
Precipitation 0.00 in - - ()
Sea Level Pressure  
Sea Level Pressure 29.93 in    
Wind  
Wind Speed 7 mph (South)    
Max Wind Speed 17 mph    
Max Gust Speed 28 mph    
Visibility 10 miles    
Events      
Averages and records for this station are not official NWS values.
T = Trace of Precipitation, MM = Missing Value Source: NWS Daily Summary

Daily Weather History Graph

Daily Weather History Graph

Search for Another Location

Airport or City:

Trip Planner

Search our weather history database for the weather conditions in past years. The results will help you decide how hot, cold, wet, or windy it might be!

Date:

Astronomy

Apr. 18, 2013 Rise Set
Actual Time 6:37 AM EDT 8:04 PM EDT
Civil Twilight 6:08 AM EDT 8:33 PM EDT
Nautical Twilight 5:34 AM EDT 9:08 PM EDT
Astronomical Twilight 4:57 AM EDT 9:45 PM EDT
Moon 12:47 PM EDT (4/18) 2:19 AM EDT (4/18)
Length of Visible Light 14h 24m
Length of Day
13h 27m
First Quarter, 51% of the Moon is Illuminated
Apr 18
First Quarter
Apr 25
Full
May 2
Last Quarter
May 9
New
May 18
First Quarter

Hourly Weather History & Observations

Time (EDT) Temp. Heat Index Dew Point Humidity Pressure Visibility Wind Dir Wind Speed Gust Speed Precip Events Conditions
12:56 AM 61.0 °F - 52.9 °F 75% 30.13 in 10.0 mi Variable 5.8 mph - N/A   Clear
1:56 AM 60.8 °F - 53.6 °F 77% 30.07 in 10.0 mi SSE 4.6 mph - N/A   Clear
2:56 AM 59.9 °F - 54.0 °F 81% 30.07 in 10.0 mi Variable 3.5 mph - N/A   Clear
3:56 AM 59.9 °F - 54.0 °F 81% 30.04 in 10.0 mi SSE 4.6 mph - N/A   Clear
4:56 AM 60.8 °F - 55.4 °F 82% 30.00 in 10.0 mi Calm Calm - N/A   Clear
5:56 AM 59.9 °F - 54.9 °F 83% 30.03 in 10.0 mi Calm Calm - N/A   Clear
6:56 AM 57.9 °F - 54.9 °F 90% 30.04 in 9.0 mi Calm Calm - N/A   Clear
7:56 AM 62.6 °F - 55.4 °F 77% 30.00 in 10.0 mi SSE 8.1 mph - N/A   Clear
8:56 AM 65.8 °F - 56.8 °F 73% 30.03 in 10.0 mi South 9.2 mph - N/A   Clear
9:56 AM 72.0 °F - 57.9 °F 61% 30.01 in 10.0 mi South 9.2 mph 19.6 mph N/A   Clear
10:56 AM 73.9 °F - 56.8 °F 55% 30.00 in 10.0 mi SSW 12.7 mph 19.6 mph N/A   Mostly Cloudy
11:56 AM 79.0 °F - 59.0 °F 50% 29.96 in 10.0 mi SW 13.8 mph 24.2 mph N/A   Clear
12:56 PM 81.0 °F 81.3 °F 59.0 °F 47% 29.92 in 10.0 mi SSW 13.8 mph 23.0 mph N/A   Partly Cloudy
1:56 PM 82.9 °F 82.8 °F 59.0 °F 44% 29.89 in 10.0 mi SSW 13.8 mph 27.6 mph N/A   Partly Cloudy
2:56 PM 81.9 °F 82.1 °F 59.0 °F 46% 29.88 in 10.0 mi SSW 9.2 mph 25.3 mph N/A   Scattered Clouds
3:56 PM 82.9 °F 82.6 °F 57.9 °F 42% 29.85 in 10.0 mi South 15.0 mph 20.7 mph N/A   Partly Cloudy
4:56 PM 84.9 °F 83.7 °F 55.9 °F 37% 29.82 in 10.0 mi South 17.3 mph 25.3 mph N/A   Partly Cloudy
5:56 PM 83.8 °F 82.6 °F 54.0 °F 36% 29.81 in 10.0 mi SSW 8.1 mph - N/A   Clear
6:56 PM 82.9 °F 81.9 °F 54.0 °F 37% 29.79 in 10.0 mi SSW 11.5 mph 18.4 mph N/A   Partly Cloudy
7:56 PM 80.6 °F 80.3 °F 53.6 °F 39% 29.76 in 10.0 mi South 8.1 mph - N/A   Scattered Clouds
8:56 PM 79.0 °F - 54.9 °F 43% 29.78 in 10.0 mi South 9.2 mph - N/A   Partly Cloudy
9:56 PM 77.0 °F - 54.9 °F 46% 29.79 in 10.0 mi South 8.1 mph 18.4 mph N/A   Clear
10:56 PM 75.2 °F - 53.6 °F 47% 29.76 in 10.0 mi South 9.2 mph 17.3 mph N/A   Clear
11:56 PM 72.9 °F - 52.0 °F 48% 29.77 in 10.0 mi SSE 9.2 mph 17.3 mph N/A   Clear